[[{"header":{"parameterUnit":"m.s-1","parameterCategory":1,"la1":30.2991,"la2":30.254,"lo1":-89.0895,"lo2":-89.0444,"dy":0.0017,"dx":0.0017,"nx":28,"ny":28,"refTime":"2024-04-26T09:00:00:Z","depth":0,"parameterNumber":2,"parameterNumberName":"U-component_of_WINDS"},"data":[0,0,0,0,0,0,0,0,0,0,0,0,0,0,0,0,0,0,0,0,0,0,0,0,0,0,0,0,0,0,0,0,0,0,0,0,0,0,0,0,0,0,0,0,0,0,0,0,0,0,0,0,0,0,0,0,0,0,-2.0288,-2.0288,0,-2.0354,-2.0355,-2.0356,-2.0353,-2.0352,-2.0351,-2.035,-2.042,-2.0422,-2.0425,0,0,0,0,0,0,0,0,0,0,0,0,0,-2.016,-2.0162,-2.0288,-2.0288,-2.0289,-2.0354,-2.0355,-2.0356,-2.0353,-2.0352,-2.0351,-2.0349,-2.0419,-2.0422,-2.0425,0,0,0,0,0,0,0,0,0,0,0,0,0,-2.022,-2.0163,-2.0287,-2.0295,-2.0297,-2.0354,-2.0355,-2.0356,-2.0353,-2.0352,-2.035,-2.0349,-2.0418,-2.0422,-2.0426,-2.048,0,0,-2.0438,-2.044,0,0,0,0,0,0,0,0,-2.0216,-2.0224,-2.0293,-2.0295,-2.0297,-2.0344,-2.0336,-2.0398,-2.0353,-2.0332,-2.035,-2.0348,-2.0396,-2.0401,-2.0417,-2.0483,-2.0486,-2.0439,-2.0441,-2.0443,-2.0444,0,0,0,0,0,0,0,-2.0212,-2.0222,-2.0314,-2.0294,-2.0296,-2.0296,-2.0303,-2.0347,-2.0371,-2.0334,-2.0334,-2.0341,-2.0396,-2.0413,-2.0419,-2.0487,-2.0439,-2.0442,-2.0445,-2.0446,-2.0601,-2.0603,0,0,0,0,0,0,-2.0206,-2.0218,-2.0312,-2.0316,-2.0252,-2.03,-2.0308,-2.033,-2.037,-2.0375,-2.0343,-2.0341,-2.0407,-2.0414,-2.0421,-2.0487,-2.0443,-2.0447,-2.0449,-2.06,-2.0602,-2.0603,0,0,0,0,0,0,-2.0203,-2.0214,-2.0309,-2.0267,-2.0279,-2.0304,-2.0329,-2.0332,-2.0349,-2.0377,-2.0382,-2.0355,-2.0406,-2.0415,-2.0465,-2.049,-2.0449,-2.0452,-2.0598,-2.06,-2.0602,-2.062,0,0,0,0,0,0,-2.02,-2.0213,-2.0234,-2.0268,-2.0281,-2.0352,-2.033,-2.0334,-2.0356,-2.0355,-2.039,-2.0395,-2.0406,-2.0459,-2.0469,-2.0495,-2.0456,-2.0596,-2.0599,-2.0602,-2.0617,-2.0622,-2.0627,0,0,0,0,0,-2.0195,-2.0236,-2.0235,-2.0246,-2.0307,-2.0353,-2.0361,-2.0372,-2.0358,-2.0379,-2.0397,-2.0394,-2.0485,-2.0464,-2.0476,-2.0503,-2.0594,-2.0598,-2.0601,-2.0615,-2.0621,-2.0627,0,0,0,0,0,0,-2.0205,-2.0241,-2.0239,-2.0293,-2.032,-2.0352,-2.0379,-2.0378,-2.0411,-2.0408,-2.0421,-2.0429,-2.0479,-2.0496,-2.0472,-2.0557,-2.0538,-2.0544,-2.0544,-2.0551,-2.0556,-2.055,-2.0459,0,0,0,0,0,-2.0213,-2.0247,-2.0276,-2.0321,-2.0334,-2.0354,-2.0375,-2.0381,-2.041,-2.0421,-2.0443,-2.0472,-2.0507,-2.053,-2.0564,-2.062,-2.0628,-2.0644,-2.0649,-2.0653,-2.0658,-2.0689,-2.0697,-2.0615,-2.0615,-2.0615,0,0,-2.0231,-2.0254,-2.0275,-2.0323,-2.0345,-2.038,-2.0364,-2.0402,-2.0428,-2.0427,-2.0475,-2.0492,-2.0525,-2.0578,-2.0603,-2.0594,-2.0682,-2.0657,-2.066,-2.0663,-2.0694,-2.0701,-2.0708,-2.0618,-2.0617,-2.0617,0,0,-2.0281,-2.0302,-2.0341,-2.0363,-2.0396,-2.0409,-2.0419,-2.0452,-2.0463,-2.0511,-2.0511,-2.0543,-2.0604,-2.0627,-2.0647,-2.0706,-2.0705,-2.0717,-2.0743,-2.0774,-2.078,-2.0786,-2.0807,-2.0814,-2.0722,-2.0722,-2.0722,0,-2.0298,-2.0351,-2.0361,-2.0399,-2.0421,-2.0421,-2.0461,-2.0482,-2.0525,-2.054,-2.053,-2.0606,-2.0628,-2.0686,-2.0701,-2.0717,-2.0729,-2.0713,-2.0778,-2.0784,-2.0789,-2.081,-2.0818,-2.0724,-2.0724,-2.0723,-2.0723,0,-2.0371,-2.0408,-2.0435,-2.0476,-2.05,-2.0539,-2.0556,-2.058,-2.0585,-2.0599,-2.0649,-2.0676,-2.0715,-2.073,-2.0734,-2.0789,-2.0783,-2.0775,-2.0756,-2.0798,-2.0818,-2.0826,-2.0726,-2.0725,-2.0725,-2.0724,0,0,-2.0429,-2.0475,-2.0485,-2.0503,-2.054,-2.0569,-2.0608,-2.0646,-2.0667,-2.0696,-2.073,-2.0781,-2.0774,-2.0797,-2.0804,-2.0831,-2.0877,-2.082,-2.0821,-2.083,-2.0939,-2.0945,-2.0953,-2.0876,-2.0877,-2.0879,-2.0936,0,-2.0483,-2.0551,-2.0562,-2.0623,-2.0657,-2.0658,-2.0693,-2.0719,-2.0734,-2.0766,-2.0782,-2.0818,-2.0807,-2.082,-2.0847,-2.0865,-2.0899,-2.0861,-2.0908,-2.0909,-2.0899,-2.0964,-2.097,-2.1023,-2.0944,-2.0945,-2.0946,0,-2.0554,-2.0585,-2.0649,-2.0681,-2.0696,-2.0727,-2.0763,-2.0793,-2.0823,-2.0832,-2.0858,-2.0862,-2.0904,-2.0883,-2.0941,-2.0915,-2.0935,-2.0947,-2.0949,-2.0954,-2.093,-2.097,-2.104,-2.1048,-2.0958,-2.0957,-2.0957,0,-2.059,-2.0648,-2.0694,-2.0709,-2.0748,-2.077,-2.0787,-2.0816,-2.0838,-2.087,-2.0885,-2.0922,-2.0942,-2.097,-2.0985,-2.0968,-2.1041,-2.1022,-2.105,-2.105,-2.1066,-2.1064,-2.114,-2.1079,-2.1078,-2.1078,-2.1078,0,-2.0649,-2.0688,-2.071,-2.0738,-2.0782,-2.0795,-2.0839,-2.0855,-2.0881,-2.0913,-2.0917,-2.0947,-2.0964,-2.0997,-2.1009,-2.1055,-2.1064,-2.1073,-2.1076,-2.1073,-2.1071,-2.1086,-2.1082,-2.108,-2.108,-2.1079,-2.1079,0,-2.0696,-2.0712,-2.0762,-2.0795,-2.0804,-2.0835,-2.0863,-2.0891,-2.0906,-2.0946,-2.0957,-2.098,-2.1019,-2.1036,-2.1085,-2.1092,-2.1145,-2.1145,-2.1135,-2.1136,-2.1163,-2.116,-2.125,-2.1262,-2.1193,-2.1194,-2.1194,0,-2.0732,-2.0763,-2.0798,-2.0819,-2.0837,-2.0872,-2.0894,-2.0908,-2.0932,-2.0969,-2.0993,-2.1031,-2.1063,-2.1126,-2.1147,-2.1184,-2.1185,-2.1214,-2.1191,-2.1187,-2.1186,-2.1184,-2.1187,-2.1218,-2.1219,-2.122,-2.122,0,-2.0795,-2.0802,-2.0834,-2.087,-2.0896,-2.0925,-2.0953,-2.0971,-2.0989,-2.1016,-2.1055,-2.108,-2.1129,-2.1168,-2.1206,-2.1225,-2.1226,-2.1227,-2.1236,-2.1233,-2.1226,-2.123,-2.1146,-2.1225,-2.1224,-2.1224,-2.1224,-2.1224,-2.0839,-2.0865,-2.0895,-2.093,-2.0953,-2.0979,-2.1007,-2.1025,-2.1058,-2.1098,-2.1105,-2.1147,-2.1177,-2.1229,-2.1249,-2.1283,-2.1276,-2.1288,-2.1291,-2.1294,-2.1296,-2.122,-2.129,-2.129,-2.129,-2.129,-2.1289,0,-2.0902,-2.0921,-2.0953,-2.0992,-2.1021,-2.1019,-2.105,-2.1074,-2.1111,-2.1139,-2.117,-2.1215,-2.1253,-2.1278,-2.1316,-2.1338,-2.134,-2.1348,-2.1347,-2.1351,-2.13,-2.1289,-2.1346,-2.1346,-2.1346,-2.1346,-2.1346,-2.1346,-2.0938,-2.0983,-2.0993,-2.105,-2.1069,-2.111,-2.1128,-2.1152,-2.1174,-2.1225,-2.1256,-2.1272,-2.1299,-2.1339,-2.1374,-2.138,-2.1394,-2.1402,-2.1409,-2.136,-2.1354,-2.1349,-2.1338,-2.1405,-2.1405,-2.1457,-2.1457,-2.1458]},{"header":{"parameterUnit":"m.s-1","parameterCategory":1,"la1":30.2991,"la2":30.254,"lo1":-89.0895,"lo2":-89.0444,"dy":0.0017,"dx":0.0017,"nx":28,"ny":28,"refTime":"2024-04-26T09:00:00:Z","depth":0,"parameterNumber":3,"parameterNumberName":"V-component_of_WINDS"},"data":[0,0,0,0,0,0,0,0,0,0,0,0,0,0,0,0,0,0,0,0,0,0,0,0,0,0,0,0,0,0,0,0,0,0,0,0,0,0,0,0,0,0,0,0,0,0,0,0,0,0,0,0,0,0,0,0,0,0,5.3951,5.3952,0,5.3996,5.3997,5.3997,5.3919,5.3917,5.3914,5.3912,5.3954,5.3958,5.3961,0,0,0,0,0,0,0,0,0,0,0,0,0,5.3793,5.3797,5.3951,5.3952,5.3952,5.3996,5.3997,5.3997,5.392,5.3917,5.3914,5.3911,5.3953,5.3957,5.3961,0,0,0,0,0,0,0,0,0,0,0,0,0,5.3852,5.3798,5.3951,5.3919,5.3917,5.3996,5.3997,5.3997,5.3921,5.3917,5.3913,5.3909,5.3952,5.3957,5.3962,5.4074,0,0,5.3978,5.3981,0,0,0,0,0,0,0,0,5.3849,5.3858,5.3923,5.3921,5.3919,5.3948,5.3956,5.4023,5.3922,5.3919,5.3912,5.3907,5.3955,5.396,5.3977,5.4076,5.4077,5.3979,5.3982,5.3984,5.3986,0,0,0,0,0,0,0,5.3845,5.3856,5.3969,5.3924,5.3922,5.3901,5.3905,5.3969,5.3958,5.3919,5.3913,5.392,5.3953,5.3972,5.3977,5.4078,5.3979,5.3983,5.3987,5.3989,5.4268,5.4272,0,0,0,0,0,0,5.3846,5.3853,5.3967,5.397,5.3874,5.3907,5.3911,5.3943,5.3957,5.3956,5.3923,5.3916,5.3965,5.3971,5.3978,5.4108,5.3984,5.3989,5.3992,5.4264,5.4269,5.4273,0,0,0,0,0,0,5.3843,5.3857,5.3966,5.391,5.3922,5.3914,5.395,5.3946,5.3964,5.3961,5.3958,5.3945,5.3962,5.3971,5.405,5.4108,5.3992,5.3997,5.4259,5.4265,5.4271,5.437,0,0,0,0,0,0,5.3838,5.3856,5.39,5.3912,5.3926,5.4038,5.3953,5.3949,5.3974,5.3965,5.398,5.3979,5.3959,5.4043,5.4056,5.4114,5.4001,5.4253,5.4262,5.4269,5.4361,5.4379,5.4393,0,0,0,0,0,5.3833,5.3925,5.3902,5.3916,5.398,5.4042,5.405,5.4026,5.3979,5.4022,5.4019,5.3978,5.4101,5.4051,5.4065,5.4126,5.425,5.4259,5.4269,5.4354,5.4375,5.4393,0,0,0,0,0,0,5.3919,5.3926,5.3901,5.4,5.4021,5.4029,5.4082,5.405,5.4084,5.4074,5.4043,5.4047,5.4132,5.4137,5.4082,5.4234,5.4167,5.418,5.4227,5.4247,5.4263,5.4259,5.4005,0,0,0,0,0,5.395,5.4001,5.4004,5.4091,5.4103,5.4091,5.4117,5.4097,5.4117,5.4125,5.4129,5.4148,5.4191,5.422,5.4259,5.4362,5.4363,5.441,5.4427,5.444,5.4451,5.4503,5.4524,5.4304,5.4304,5.4304,0,0,5.4013,5.4023,5.4057,5.4108,5.4122,5.4174,5.4099,5.4157,5.4194,5.4134,5.4208,5.4212,5.4232,5.4323,5.4363,5.433,5.4512,5.4452,5.4463,5.4466,5.4515,5.4536,5.4554,5.4311,5.431,5.4309,0,0,5.4154,5.4169,5.4241,5.4257,5.428,5.4271,5.4289,5.4301,5.4301,5.4376,5.4331,5.4375,5.4449,5.4465,5.4482,5.4629,5.4592,5.4643,5.4727,5.4778,5.4796,5.4811,5.4861,5.4879,5.4654,5.4654,5.4654,0,5.423,5.4307,5.4283,5.4344,5.4366,5.4315,5.4388,5.4404,5.4438,5.4454,5.4416,5.4508,5.4518,5.4611,5.4647,5.4663,5.4681,5.464,5.4795,5.481,5.4824,5.4871,5.4891,5.466,5.4659,5.4659,5.4658,0,5.4398,5.4452,5.4508,5.4543,5.4572,5.4639,5.4622,5.4655,5.4633,5.4627,5.4703,5.4713,5.4753,5.4774,5.4753,5.4864,5.4842,5.4801,5.4733,5.4851,5.4895,5.4913,5.4669,5.4666,5.4665,5.4663,0,0,5.4594,5.4614,5.4635,5.4649,5.467,5.471,5.4774,5.4813,5.484,5.4866,5.4916,5.4981,5.4942,5.4962,5.4942,5.4988,5.5101,5.4941,5.4941,5.4968,5.5221,5.5251,5.5272,5.5077,5.5081,5.5083,5.5219,0,5.4733,5.4843,5.4823,5.493,5.4978,5.493,5.4985,5.5002,5.4999,5.5039,5.5034,5.508,5.5027,5.5038,5.5082,5.5078,5.5151,5.5068,5.5122,5.5124,5.5117,5.5296,5.5327,5.5455,5.5236,5.5239,5.5241,0,5.491,5.4942,5.5054,5.5065,5.5085,5.5135,5.5168,5.5208,5.5226,5.522,5.5243,5.5214,5.5275,5.5208,5.529,5.5234,5.5255,5.5257,5.5261,5.5264,5.5188,5.5301,5.5495,5.5513,5.5268,5.5266,5.5264,0,5.5039,5.511,5.5186,5.52,5.5216,5.5252,5.526,5.5274,5.5299,5.5328,5.5343,5.5379,5.5398,5.5426,5.5407,5.536,5.5492,5.5423,5.5487,5.5487,5.5515,5.5513,5.5713,5.5532,5.5532,5.5532,5.5531,0,5.5195,5.5265,5.5244,5.529,5.5366,5.5341,5.5417,5.5419,5.5432,5.5477,5.5438,5.548,5.5453,5.5493,5.5478,5.5548,5.5557,5.5553,5.5547,5.5555,5.5555,5.5567,5.5557,5.5537,5.5536,5.5535,5.5534,0,5.5351,5.534,5.5419,5.5428,5.5432,5.5487,5.5494,5.5536,5.553,5.5587,5.5599,5.5589,5.5633,5.5618,5.5665,5.5655,5.5743,5.5727,5.5737,5.5732,5.5796,5.5789,5.6008,5.6035,5.5839,5.5841,5.5843,0,5.5451,5.5503,5.5518,5.5545,5.5557,5.5602,5.5626,5.5604,5.5631,5.5655,5.5694,5.5736,5.5767,5.5841,5.5837,5.5872,5.5856,5.593,5.5861,5.5866,5.5854,5.5851,5.5855,5.5944,5.5946,5.5948,5.5949,0,5.5628,5.562,5.5658,5.5694,5.5725,5.5752,5.5775,5.58,5.5778,5.581,5.5856,5.5881,5.5929,5.597,5.6002,5.6008,5.5975,5.5971,5.5987,5.5995,5.5997,5.5995,5.5773,5.5966,5.5964,5.5963,5.5962,5.5961,5.5757,5.5801,5.5818,5.5861,5.5876,5.5899,5.5938,5.5938,5.5975,5.6014,5.5998,5.605,5.6065,5.6105,5.6116,5.6155,5.6126,5.615,5.6156,5.6161,5.6169,5.5993,5.6161,5.616,5.616,5.616,5.6159,0,5.593,5.5939,5.5979,5.6013,5.6046,5.6014,5.6037,5.6067,5.6114,5.6131,5.6163,5.6215,5.6254,5.6253,5.6289,5.6321,5.6306,5.6331,5.6327,5.6329,5.6194,5.6175,5.6342,5.6342,5.6342,5.6342,5.6342,5.6342,5.6024,5.6096,5.609,5.6168,5.6175,5.6226,5.6243,5.6262,5.6276,5.6336,5.6368,5.6368,5.6378,5.6414,5.6448,5.6446,5.646,5.6491,5.6483,5.6357,5.6338,5.6321,5.6303,5.6495,5.6495,5.6615,5.6616,5.6617]}]]